Location: Domont
(49.0278°N, 2.3264°E)
Time: 22:02:58
(UTC+00:00)

DIWATA 2B (PO-101) - Pass Details

Date: 30 June 2022
Orbit: 583 x 599 km, 98.0° (Epoch: 07 August)

Event Time Altitude Azimuth Distance (km) Brightness Sun altitude
Exits shadow 01:30:48 16° 160° (SSE) 1,581 ? -14.7°
Maximum altitude 01:34:08 81° 75° (ENE) 614 ? -14.4°
Drops below altitude 10° 01:38:22 10° 348° (NNW) 1,952 ? -14.2°
Sets 01:40:33 0° 348° (NNW) 2,859 ? -14.0°
